Home   Weather   Male   Past weeks

Flag for Maldives Past Weather in Male, Maldives — Yesterday and Last 2 Weeks

77 °F

Mostly cloudy.

Feels Like: 78 °F
Forecast: 77 / 80 °F
Wind: 3 mph from West

Location: Male Airport

Current Time: Oct 22, 2016 at 11:02:25 PM

Latest Report: Oct 22, 2016 at 10:00 PM

Visibility: 6 mi

Pressure: 29.92 "Hg

Humidity: 89%

Dew Point: 73 °F

Location of MaleLocation

Past Weather in Male — Graph


Male Temperature Yesterday

Maximum temperature yesterday: 86 °F (at 12:00 PM)
Minimum temperature yesterday: 77 °F (at 2:00 AM)
Average temperature yesterday: 82 °F

High & Low Weather Summary for the Past Weeks

High88 °F (Oct 8, 12:00 PM)100% (Oct 9, 6:00 AM)29.98 "Hg (Oct 9, 6:00 AM)
Low75 °F (Oct 22, 7:00 PM)66% (Oct 14, 1:00 PM)29.77 "Hg (Oct 14, 3:00 AM)
Average82 °F81%29.85 "Hg
* Reported Oct 7 9:00 PM — Oct 22 9:00 PM, Male, Weather by CustomWeather, © 2016

Note: Actual official high and low records may vary slightly from our data, if they occured in-between our weather recording intervals... More about our weather records


Male Weather History for the Previous 24 Hours

Scroll right to see more
Time TempWeatherWind HumidityBarometerVisibility
9:00 PM
Sat, Oct 22
75 °FMostly cloudy.5 mph94%29.95 "Hg6 mi
8:00 PM75 °FLight rain. Mostly cloudy.12 mph94%29.92 "Hg5 mi
7:00 PM75 °FLight rain. Mostly cloudy.12 mph94%29.92 "Hg4 mi
6:00 PM77 °FLight rain. Mostly cloudy.14 mph89%29.89 "Hg4 mi
5:00 PM81 °FMore clouds than sun.12 mph79%29.86 "HgN/A
4:00 PM81 °FMore clouds than sun.10 mph79%29.83 "Hg6 mi
3:00 PM79 °FLight rain. Overcast.17 mph84%29.83 "Hg6 mi
1:00 PM84 °FBroken clouds.17 mph74%29.86 "HgN/A
12:00 PM84 °FPartly sunny.17 mph74%29.89 "HgN/A
11:00 AM84 °FPartly sunny.20 mph74%29.89 "HgN/A
10:00 AM84 °FPartly sunny.16 mph74%29.92 "HgN/A
9:00 AM82 °FPartly sunny.15 mph79%29.92 "HgN/A
8:00 AM82 °FPartly sunny.14 mph70%29.89 "HgN/A
7:00 AM79 °FPartly sunny.13 mph79%29.86 "HgN/A
6:00 AM77 °FSprinkles. Partly sunny.14 mph89%29.86 "Hg6 mi
5:00 AM82 °FPassing clouds.15 mph79%29.83 "HgN/A
4:00 AM82 °FPassing clouds.13 mph84%29.83 "HgN/A
3:00 AM82 °FPassing clouds.13 mph79%29.80 "HgN/A
2:00 AM82 °FPassing clouds.12 mph79%29.83 "HgN/A
1:00 AM82 °FPassing clouds.12 mph84%29.86 "HgN/A
12:00 AM82 °FPassing clouds.12 mph79%29.86 "HgN/A
11:00 PM
Fri, Oct 21
82 °FPassing clouds.12 mph84%29.89 "HgN/A
Weather by CustomWeather, © 2016

See weather overviewHow to use our weather pages